Location: Newark
(21.1200°N, 73.4000°E)
Time: 06:08:27
(UTC+00:00)

Courier 1B Rocket - Pass Details

Date: 21 January 2020
Orbit: 920 x 1202 km, 28.2° (Epoch: 19 February)

Event Time Altitude Azimuth Distance (km) Brightness Sun altitude
Rises 13:17:42 0° 289° (WNW) 3,567 8.9 -7.1°
Reaches altitude 10° 13:20:19 10° 289° (WNW) 2,610 8.1 -7.7°
Maximum altitude 13:26:33 82° 202° (SSW) 928 5.0 -9.0°
Drops below altitude 10° 13:32:52 10° 115° (ESE) 2,637 6.8 -10.4°
Enters shadow 13:34:32 - 115° (ESE) 3,247 7.3 -10.8°
Sets 13:35:31 0° 114° (ESE) 3,607 - -11.0°
